| time (UTC) | temp F | wind direction | speed knots | gust knots | rain 1hr in | rain 24hr in | rain mn in | humidity % | barometer mb |
| 20260507100000 | 63 | 199 | 3.5 | 7.8 | 0.00 | 0.00 | 0.00 | 41 | 1021.0 |
| 20260507095000 | 63 | 240 | 3.5 | 5.2 | 0.00 | 0.00 | 0.00 | 41 | 1021.0 |
| 20260507094006 | 63 | 187 | 2.6 | 4.3 | 0.00 | 0.00 | 0.00 | 47 | 1021.0 |
| 20260507093000 | 63 | 95 | 2.6 | 8.7 | 0.00 | 0.00 | 0.00 | 48 | 1021.0 |
| 20260507092000 | 63 | 124 | 0.9 | 8.7 | 0.00 | 0.00 | 0.00 | 48 | 1021.0 |
| 20260507091000 | 62 | 162 | 0.9 | 6.1 | 0.00 | 0.00 | 0.00 | 47 | 1021.0 |
| 20260507090000 | 61 | 186 | 2.6 | 8.7 | 0.00 | 0.00 | 0.00 | 48 | 1021.0 |
| 20260507085000 | 62 | 158 | 3.5 | 8.7 | 0.00 | 0.00 | 0.00 | 49 | 1021.0 |
| 20260507084000 | 61 | 119 | 1.7 | 8.7 | 0.00 | 0.00 | 0.00 | 46 | 1021.0 |
| 20260507083000 | 61 | 233 | 4.3 | 7.0 | 0.00 | 0.00 | 0.00 | 46 | 1021.0 |
| 20260507082000 | 61 | 130 | 5.2 | 6.1 | 0.00 | 0.00 | 0.00 | 45 | 1021.0 |
| 20260507081000 | 62 | 198 | 1.7 | 6.1 | 0.00 | 0.00 | 0.00 | 45 | 1021.0 |
| 20260507080000 | 62 | 175 | 1.7 | 7.8 | 0.00 | 0.00 | 0.00 | 44 | 1021.0 |
| 20260507075000 | 63 | 192 | 2.6 | 5.2 | 0.00 | 0.00 | 0.00 | 48 | 1021.0 |
| 20260507074000 | 63 | 203 | 1.7 | 5.2 | 0.00 | 0.00 | 0.00 | 46 | 1021.0 |
| 20260507073000 | 63 | 207 | 0.9 | 3.5 | 0.00 | 0.00 | 0.00 | 44 | 1021.0 |
| 20260507072000 | 63 | 135 | 4.3 | 5.2 | 0.00 | 0.00 | 0.00 | 44 | 1021.0 |
| 20260507071000 | 63 | 179 | 0.9 | 6.1 | 0.00 | 0.00 | 0.00 | 45 | 1021.0 |
| 20260507070000 | 63 | 153 | 3.5 | 7.8 | 0.00 | 0.00 | 0.00 | 47 | 1021.0 |
| 20260507065000 | 61 | 168 | 1.7 | 7.0 | 0.00 | 0.00 | 0.00 | 48 | 1021.0 |
| 20260507064000 | 60 | 194 | 3.5 | 5.2 | 0.00 | 0.00 | 0.00 | 48 | 1021.0 |
| 20260507063000 | 61 | 201 | 1.7 | 5.2 | 0.00 | 0.00 | 0.00 | 49 | 1020.0 |
| 20260507062000 | 58 | 170 | 1.7 | 2.6 | 0.00 | 0.00 | 0.00 | 54 | 1020.0 |
| 20260507061000 | 57 | 309 | 0.9 | 3.5 | 0.00 | 0.00 | 0.00 | 58 | 1020.0 |
| 20260507060000 | 55 | 266 | 1.7 | 3.5 | 0.00 | 0.00 | 0.00 | 60 | 1020.0 |
| 20260507055000 | 55 | 279 | 2.6 | 4.3 | 0.00 | 0.00 | 0.00 | 60 | 1020.0 |
| 20260507054000 | 53 | 272 | 3.5 | 3.5 | 0.00 | 0.00 | 0.00 | 68 | 1020.0 |
| 20260507053000 | 50 | 276 | 2.6 | 3.5 | 0.00 | 0.00 | 0.00 | 69 | 1020.0 |
| 20260507052000 | 48 | 267 | 2.6 | 4.3 | 0.00 | 0.00 | 0.00 | 74 | 1020.0 |
| 20260507051000 | 47 | 247 | 0.0 | 0.9 | 0.00 | 0.00 | 0.00 | 75 | 1020.0 |
| 20260507050000 | 46 | 247 | 0.9 | 1.7 | 0.00 | 0.00 | 0.00 | 79 | 1020.0 |
| 20260507045000 | 45 | 247 | 0.0 | 0.0 | 0.00 | 0.00 | 0.00 | 78 | 1020.0 |
| 20260507044000 | 43 | 247 | 0.0 | 1.7 | 0.00 | 0.00 | 0.00 | 83 | 1019.5 |
| 20260507043000 | 42 | 267 | 0.0 | 1.7 | 0.00 | 0.00 | 0.00 | 83 | 1019.5 |
| 20260507042000 | 41 | 268 | 0.0 | 0.0 | 0.00 | 0.00 | 0.00 | 82 | 1019.5 |
| 20260507041000 | 41 | 268 | 0.0 | 0.9 | 0.00 | 0.00 | 0.00 | 82 | 1019.5 |
| 20260507040000 | 41 | 273 | 0.0 | 1.7 | 0.00 | 0.00 | 0.00 | 83 | 1019.5 |
| 20260507035000 | 40 | 325 | 0.9 | 1.7 | 0.00 | 0.00 | 0.00 | 83 | 1019.5 |
| 20260507034000 | 39 | 247 | 0.0 | 0.0 | 0.00 | 0.00 | 0.00 | 83 | 1019.5 |
| 20260507033000 | 39 | 124 | 0.0 | 0.9 | 0.00 | 0.00 | 0.00 | 84 | 1019.5 |
| 20260507032000 | 39 | 357 | 0.9 | 0.9 | 0.00 | 0.00 | 0.00 | 83 | 1019.5 |
| 20260507031000 | 39 | 223 | 0.0 | 0.9 | 0.00 | 0.00 | 0.00 | 83 | 1019.5 |
| 20260507030000 | 39 | 165 | 0.0 | 0.0 | 0.00 | 0.00 | 0.00 | 83 | 1016.0 |
| 20260507025000 | 39 | 202 | 0.0 | 0.0 | 0.00 | 0.00 | 0.00 | 83 | 1016.0 |
| 20260507024000 | 39 | 190 | 0.9 | 2.6 | 0.00 | 0.00 | 0.00 | 83 | 1016.0 |
| 20260507023000 | 39 | 18 | 0.0 | 1.7 | 0.00 | 0.00 | 0.00 | 83 | 1016.0 |
| 20260507022000 | 39 | 8 | 0.9 | 1.7 | 0.00 | 0.00 | 0.00 | 82 | 1016.0 |
| 20260507021000 | 39 | 207 | 0.0 | 1.7 | 0.00 | 0.00 | 0.00 | 82 | 1016.0 |
| 20260507020000 | 39 | 11 | 1.7 | 1.7 | 0.00 | 0.00 | 0.00 | 82 | 1016.0 |
| 20260507015000 | 40 | 177 | 0.0 | 0.0 | 0.00 | 0.00 | 0.00 | 81 | 1016.0 |
| 20260507014000 | 40 | 219 | 0.0 | 0.0 | 0.00 | 0.00 | 0.00 | 82 | 1016.0 |
| 20260507013000 | 40 | 157 | 0.0 | 0.9 | 0.00 | 0.00 | 0.00 | 81 | 1016.0 |
| 20260507012000 | 40 | 196 | 0.0 | 0.0 | 0.00 | 0.00 | 0.00 | 82 | 1016.0 |
| 20260507011000 | 40 | 182 | 0.0 | 1.7 | 0.00 | 0.00 | 0.00 | 80 | 1016.0 |
| 20260507010000 | 40 | 229 | 0.0 | 0.9 | 0.00 | 0.00 | 0.00 | 80 | 1016.0 |
| 20260507005000 | 40 | 229 | 1.7 | 3.5 | 0.00 | 0.00 | 0.00 | 81 | 1016.0 |
| 20260507004000 | 40 | 184 | 0.0 | 2.6 | 0.00 | 0.00 | 0.00 | 81 | 1016.0 |
| 20260507003000 | 40 | 107 | 0.0 | 0.9 | 0.00 | 0.00 | 0.00 | 80 | 1016.0 |
| 20260507002000 | 40 | 279 | 0.0 | 0.9 | 0.00 | 0.00 | 0.00 | 81 | 1016.0 |
| 20260507001000 | 40 | 16 | 0.9 | 1.7 | 0.00 | 0.00 | 0.00 | 81 | 1016.0 |
| 20260507000000 | 40 | 193 | 0.0 | 0.0 | 0.00 | 0.00 | 0.00 | 81 | 1016.0 |
| 20260506235000 | 40 | 317 | 0.0 | 0.9 | 0.00 | 0.00 | 0.00 | 81 | 1016.0 |
| 20260506234000 | 40 | 307 | 0.0 | 0.0 | 0.00 | 0.00 | 0.00 | 81 | 1016.0 |
| 20260506233000 | 40 | 71 | 0.0 | 2.6 | 0.00 | 0.00 | 0.00 | 81 | 1016.0 |
| 20260506232000 | 40 | 33 | 0.9 | 1.7 | 0.00 | 0.00 | 0.00 | 81 | 1016.0 |
| 20260506231000 | 40 | 356 | 1.7 | 1.7 | 0.00 | 0.00 | 0.00 | 81 | 1016.0 |
| 20260506230000 | 40 | 317 | 0.0 | 1.7 | 0.00 | 0.00 | 0.00 | 81 | 1016.0 |
| 20260506225000 | 40 | 302 | 0.0 | 1.7 | 0.00 | 0.00 | 0.00 | 81 | 1016.0 |
| 20260506224000 | 40 | 19 | 0.9 | 1.7 | 0.00 | 0.00 | 0.00 | 80 | 1016.0 |
| 20260506223000 | 41 | 3 | 0.0 | 0.0 | 0.00 | 0.00 | 0.00 | 81 | 1016.0 |
| 20260506222000 | 41 | 38 | 0.0 | 0.9 | 0.00 | 0.00 | 0.00 | 80 | 1016.0 |
| 20260506221001 | 41 | 247 | 0.0 | 0.0 | 0.00 | 0.00 | 0.00 | 80 | 1016.0 |
| 20260506220000 | 41 | 247 | 0.0 | 0.0 | 0.00 | 0.00 | 0.00 | 80 | 1016.0 |
| 20260506215000 | 41 | 114 | 0.9 | 1.7 | 0.00 | 0.00 | 0.00 | 80 | 1016.0 |
| 20260506214000 | 41 | 21 | 0.9 | 0.9 | 0.00 | 0.00 | 0.00 | 79 | 1016.0 |
| 20260506213002 | 41 | 247 | 0.0 | 0.9 | 0.00 | 0.00 | 0.00 | 79 | 1016.0 |
| 20260506212000 | 41 | 182 | 0.0 | 0.0 | 0.00 | 0.00 | 0.00 | 78 | 1016.0 |
| 20260506211000 | 41 | 205 | 0.0 | 0.0 | 0.00 | 0.00 | 0.00 | 79 | 1016.0 |
| 20260506210000 | 42 | 225 | 0.0 | 0.0 | 0.00 | 0.00 | 0.00 | 79 | 1016.0 |
| 20260506205000 | 42 | 150 | 0.0 | 0.0 | 0.00 | 0.00 | 0.00 | 77 | 1016.0 |
| 20260506204000 | 42 | 260 | 0.9 | 2.6 | 0.00 | 0.00 | 0.00 | 78 | 1016.0 |
| 20260506203000 | 42 | 19 | 1.7 | 2.6 | 0.00 | 0.00 | 0.00 | 77 | 1016.0 |
| 20260506202000 | 42 | 137 | 0.9 | 1.7 | 0.00 | 0.00 | 0.00 | 76 | 1016.0 |
| 20260506201000 | 43 | 22 | 1.7 | 2.6 | 0.00 | 0.00 | 0.00 | 77 | 1016.0 |
| 20260506200000 | 43 | 356 | 0.0 | 0.0 | 0.00 | 0.00 | 0.00 | 78 | 1016.0 |
| 20260506195000 | 43 | 156 | 0.0 | 1.7 | 0.00 | 0.00 | 0.00 | 77 | 1016.0 |
| 20260506194000 | 43 | 33 | 1.7 | 2.6 | 0.00 | 0.00 | 0.00 | 76 | 1016.0 |
| 20260506193000 | 43 | 166 | 0.0 | 1.7 | 0.00 | 0.00 | 0.00 | 77 | 1016.0 |
| 20260506192000 | 43 | 349 | 0.9 | 1.7 | 0.00 | 0.00 | 0.00 | 75 | 1016.0 |
| 20260506191000 | 43 | 253 | 0.0 | 1.7 | 0.00 | 0.00 | 0.00 | 75 | 1016.0 |
| 20260506190000 | 44 | 339 | 0.0 | 0.0 | 0.00 | 0.00 | 0.00 | 75 | 1016.0 |
| 20260506185000 | 44 | 170 | 0.0 | 0.0 | 0.00 | 0.00 | 0.00 | 72 | 1016.0 |
| 20260506184000 | 45 | 0 | 0.0 | 0.0 | 0.00 | 0.00 | 0.00 | 73 | 1016.0 |
| 20260506183000 | 45 | 0 | 0.0 | 0.0 | 0.00 | 0.00 | 0.00 | 72 | 1016.0 |
| 20260506182000 | 46 | 0 | 0.0 | 0.0 | 0.00 | 0.00 | 0.00 | 71 | 1016.0 |
| 20260506181000 | 46 | 0 | 0.0 | 0.0 | 0.00 | 0.00 | 0.00 | 69 | 1016.0 |
| 20260506180000 | 46 | 0 | 0.0 | 0.0 | 0.00 | 0.00 | 0.00 | 68 | 1016.0 |
| 20260506175000 | 47 | 0 | 0.0 | 0.0 | 0.00 | 0.00 | 0.00 | 66 | 1016.0 |
| 20260506174000 | 48 | 0 | 0.0 | 0.0 | 0.00 | 0.00 | 0.00 | 64 | 1016.0 |
| 20260506173000 | 49 | 0 | 0.0 | 0.0 | 0.00 | 0.00 | 0.00 | 64 | 1016.0 |
| 20260506172000 | 49 | 0 | 0.0 | 0.0 | 0.00 | 0.00 | 0.00 | 62 | 1016.0 |
| 20260506171000 | 50 | 0 | 0.0 | 0.0 | 0.00 | 0.00 | 0.00 | 60 | 1016.0 |
| 20260506170000 | 51 | 0 | 0.0 | 0.0 | 0.00 | 0.00 | 0.00 | 58 | 1016.0 |
| 20260506165000 | 52 | 0 | 0.0 | 0.0 | 0.00 | 0.00 | 0.00 | 57 | 1016.0 |
| 20260506164000 | 52 | 0 | 0.0 | 0.0 | 0.00 | 0.00 | 0.00 | 56 | 1016.0 |
| 20260506163000 | 53 | 0 | 0.0 | 0.0 | 0.00 | 0.00 | 0.00 | 55 | 1016.0 |
| 20260506162000 | 54 | 198 | 0.9 | 3.5 | 0.00 | 0.00 | 0.00 | 54 | 1016.0 |
| 20260506161000 | 54 | 193 | 0.0 | 4.3 | 0.00 | 0.00 | 0.00 | 54 | 1016.0 |
| 20260506160000 | 55 | 169 | 1.7 | 5.2 | 0.00 | 0.00 | 0.00 | 53 | 1016.0 |
| 20260506155000 | 55 | 176 | 1.7 | 4.3 | 0.00 | 0.00 | 0.00 | 53 | 1016.0 |
| 20260506154000 | 55 | 197 | 0.0 | 4.3 | 0.00 | 0.00 | 0.00 | 54 | 1016.0 |
| 20260506153000 | 56 | 193 | 2.6 | 4.3 | 0.00 | 0.00 | 0.00 | 55 | 1016.0 |
| 20260506152000 | 56 | 163 | 2.6 | 6.1 | 0.00 | 0.00 | 0.00 | 52 | 1016.0 |
| 20260506151000 | 56 | 159 | 2.6 | 7.8 | 0.00 | 0.00 | 0.00 | 54 | 1016.0 |
| 20260506150000 | 56 | 208 | 1.7 | 7.0 | 0.00 | 0.00 | 0.00 | 52 | 1016.0 |
| 20260506145000 | 56 | 176 | 1.7 | 6.1 | 0.00 | 0.00 | 0.00 | 52 | 1016.0 |
| 20260506144000 | 57 | 191 | 2.6 | 6.1 | 0.00 | 0.00 | 0.00 | 51 | 1016.0 |
| 20260506143000 | 57 | 133 | 2.6 | 7.0 | 0.00 | 0.00 | 0.00 | 50 | 1016.0 |
| 20260506142000 | 58 | 196 | 4.3 | 9.6 | 0.00 | 0.00 | 0.00 | 49 | 1016.0 |
| 20260506141000 | 58 | 168 | 2.6 | 9.6 | 0.00 | 0.00 | 0.00 | 49 | 1016.0 |
| 20260506140000 | 59 | 148 | 2.6 | 8.7 | 0.00 | 0.00 | 0.00 | 49 | 1017.0 |
| 20260506135000 | 59 | 185 | 1.7 | 4.3 | 0.00 | 0.00 | 0.00 | 51 | 1017.0 |
| 20260506134000 | 58 | 179 | 1.7 | 6.1 | 0.00 | 0.00 | 0.00 | 52 | 1017.0 |
| 20260506133000 | 58 | 201 | 2.6 | 7.0 | 0.00 | 0.00 | 0.00 | 52 | 1017.0 |
| 20260506132000 | 59 | 123 | 2.6 | 7.8 | 0.00 | 0.00 | 0.00 | 49 | 1017.0 |
| 20260506131000 | 58 | 186 | 1.7 | 7.0 | 0.00 | 0.00 | 0.00 | 52 | 1017.0 |
| 20260506130000 | 56 | 225 | 2.6 | 7.0 | 0.00 | 0.00 | 0.00 | 52 | 1017.0 |
| 20260506125000 | 57 | 193 | 4.3 | 7.8 | 0.00 | 0.00 | 0.00 | 54 | 1017.0 |
| 20260506124000 | 59 | 228 | 3.5 | 5.2 | 0.00 | 0.00 | 0.00 | 51 | 1017.0 |
| 20260506123000 | 58 | 133 | 4.3 | 6.1 | 0.00 | 0.00 | 0.00 | 49 | 1017.0 |
| 20260506122000 | 59 | 166 | 3.5 | 8.7 | 0.00 | 0.00 | 0.00 | 51 | 1017.0 |
| 20260506121000 | 59 | 88 | 2.6 | 7.0 | 0.00 | 0.00 | 0.00 | 50 | 1017.0 |
| 20260506120000 | 58 | 200 | 4.3 | 9.6 | 0.00 | 0.00 | 0.00 | 52 | 1017.0 |
| 20260506115000 | 59 | 117 | 4.3 | 10.4 | 0.00 | 0.00 | 0.00 | 50 | 1017.0 |
| 20260506114623 | 59 | 198 | 2.6 | 10.4 | 0.00 | 0.00 | 0.00 | 54 | 1017.0 |
| 20260506114000 | 57 | 190 | 2.6 | 7.8 | 0.00 | 0.00 | 0.00 | 53 | 1017.0 |
| 20260506113000 | 57 | 192 | 4.3 | 7.0 | 0.00 | 0.00 | 0.00 | 54 | 1017.0 |
| 20260506112000 | 57 | 143 | 1.7 | 6.1 | 0.00 | 0.00 | 0.00 | 55 | 1017.0 |
| 20260506111000 | 57 | 160 | 2.6 | 9.6 | 0.00 | 0.00 | 0.00 | 51 | 1017.0 |
| 20260506110000 | 56 | 186 | 1.7 | 7.8 | 0.00 | 0.00 | 0.00 | 57 | 1017.0 |
| 20260506105000 | 55 | 192 | 0.9 | 6.1 | 0.00 | 0.00 | 0.00 | 57 | 1017.0 |
| 20260506104000 | 56 | 236 | 2.6 | 5.2 | 0.00 | 0.00 | 0.00 | 58 | 1017.0 |
| 20260506103000 | 55 | 201 | 3.5 | 9.6 | 0.00 | 0.00 | 0.00 | 55 | 1017.0 |
| 20260506102000 | 55 | 190 | 0.9 | 7.8 | 0.00 | 0.00 | 0.00 | 56 | 1017.0 |
| 20260506101000 | 56 | 231 | 3.5 | 7.0 | 0.00 | 0.00 | 0.00 | 54 | 1017.0 |